Weather History for KGLE - November, 2012

Change the Weather History Date:

Friday, November 30, 2012

  Actual Average (KDTO) Record (KDTO)
Temperature  
Mean Temperature 58 °F -  
Max Temperature 69 °F 59 °F 79 °F (2014)
Min Temperature 46 °F 38 °F 23 °F (2005)
Degree Days  
Heating Degree Days 8    
Growing Degree Days 8 (Base 50)    
Moisture  
Dew Point 53 °F    
Average Humidity 84    
Maximum Humidity 100    
Minimum Humidity 60    
Precipitation  
Precipitation 0.00 in - - ()
Sea Level Pressure  
Sea Level Pressure 30.07 in    
Wind  
Wind Speed 10 mph (SSE)    
Max Wind Speed 18 mph    
Max Gust Speed 23 mph    
Visibility 8 miles    
Events      
Averages and records for this station are not official NWS values.
T = Trace of Precipitation, MM = Missing Value Source: NWS Daily Summary

Daily Weather History Graph

Daily Weather History Graph

Search for Another Location

Airport or City:

Trip Planner

Search our weather history database for the weather conditions in past years. The results will help you decide how hot, cold, wet, or windy it might be!

Date:

Astronomy

Nov. 30, 2012 Rise Set
Actual Time 7:14 AM CST 5:20 PM CST
Civil Twilight 6:47 AM CST 5:47 PM CST
Nautical Twilight 6:16 AM CST 6:18 PM CST
Astronomical Twilight 5:46 AM CST 6:48 PM CST
Moon 7:15 PM CST (11/30) 8:47 AM CST (11/30)
Length of Visible Light 11h 00m
Length of Day
10h 05m
Waning Gibbous, 96% of the Moon is Illuminated
Nov 30
Waning Gibbous
Dec 6
Last Quarter
Dec 13
New
Dec 19
First Quarter
Dec 28
Full

Hourly Weather History & Observations

Time (CST) Temp. Windchill Dew Point Humidity Pressure Visibility Wind Dir Wind Speed Gust Speed Precip Events Conditions
12:15 AM 50.0 °F - 46.4 °F 87% 30.12 in 10.0 mi SE 8.1 mph - N/A   Clear
12:35 AM 50.0 °F - 46.4 °F 87% 30.12 in 10.0 mi SSE 9.2 mph - N/A   Clear
12:55 AM 50.0 °F - 46.4 °F 87% 30.11 in 10.0 mi SE 9.2 mph - N/A   Clear
1:15 AM 50.0 °F - 46.4 °F 87% 30.11 in 10.0 mi SSE 9.2 mph - N/A   Clear
1:35 AM 50.0 °F - 46.4 °F 87% 30.10 in 10.0 mi SSE 8.1 mph - N/A   Clear
1:55 AM 50.0 °F - 46.4 °F 87% 30.10 in 10.0 mi SSE 8.1 mph - N/A   Clear
2:15 AM 50.0 °F - 46.4 °F 87% 30.11 in 10.0 mi SSE 6.9 mph - N/A   Clear
2:35 AM 50.0 °F - 46.4 °F 87% 30.11 in 10.0 mi SSE 6.9 mph - N/A   Clear
2:55 AM 50.0 °F - 46.4 °F 87% 30.10 in 7.0 mi SSE 8.1 mph - N/A   Clear
3:15 AM 50.0 °F - 46.4 °F 87% 30.10 in 7.0 mi SSE 8.1 mph - N/A   Clear
3:35 AM 50.0 °F - 46.4 °F 87% 30.10 in 7.0 mi SSE 9.2 mph - N/A   Clear
3:55 AM 50.0 °F - 46.4 °F 87% 30.09 in 7.0 mi SSE 9.2 mph - N/A   Clear
4:15 AM 46.4 °F 42.4 °F 44.6 °F 93% 30.09 in 7.0 mi SSE 8.1 mph - N/A   Clear
4:35 AM 46.4 °F 41.9 °F 46.4 °F 100% 30.09 in 5.0 mi SSE 9.2 mph - N/A   Clear
4:55 AM 46.4 °F 42.4 °F 46.4 °F 100% 30.09 in 5.0 mi SSE 8.1 mph - N/A   Clear
5:15 AM 46.4 °F 42.4 °F 46.4 °F 100% 30.09 in 4.0 mi SSE 8.1 mph - N/A   Clear
5:35 AM 46.4 °F 42.4 °F 46.4 °F 100% 30.09 in 4.0 mi SSE 8.1 mph - N/A   Clear
5:55 AM 46.4 °F 42.9 °F 46.4 °F 100% 30.10 in 4.0 mi SSE 6.9 mph - N/A   Clear
6:15 AM 48.2 °F - 46.4 °F 93% 30.10 in 3.0 mi SSE 6.9 mph - N/A   Clear
6:35 AM 48.2 °F - 48.2 °F 100% 30.10 in 3.0 mi SSE 6.9 mph - N/A   Clear
6:55 AM 50.0 °F - 48.2 °F 94% 30.11 in 3.0 mi SSE 5.8 mph - N/A   Clear
7:15 AM 46.4 °F 43.5 °F 46.4 °F 100% 30.11 in 2.0 mi SSE 5.8 mph - N/A   Clear
7:35 AM 50.0 °F - 50.0 °F 100% 30.12 in 1.5 mi SSE 9.2 mph - N/A   Mostly Cloudy
7:55 AM 51.8 °F - 51.8 °F 100% 30.12 in 2.0 mi SSE 12.7 mph - N/A   Overcast
8:15 AM 51.8 °F - 51.8 °F 100% 30.13 in 2.5 mi South 10.4 mph - N/A   Overcast
8:35 AM 53.6 °F - 53.6 °F 100% 30.14 in 3.0 mi South 10.4 mph 17.3 mph N/A   Overcast
8:55 AM 55.4 °F - 53.6 °F 94% 30.14 in 4.0 mi South 13.8 mph - N/A   Overcast
9:15 AM 55.4 °F - 53.6 °F 94% 30.14 in 5.0 mi South 12.7 mph - N/A   Mostly Cloudy
9:35 AM 59.0 °F - 55.4 °F 88% 30.14 in 7.0 mi South 13.8 mph 20.7 mph N/A   Mostly Cloudy
9:55 AM 60.8 °F - 55.4 °F 82% 30.14 in 7.0 mi South 16.1 mph - N/A   Mostly Cloudy
10:15 AM 62.6 °F - 55.4 °F 77% 30.14 in 10.0 mi South 16.1 mph 19.6 mph N/A   Mostly Cloudy
10:35 AM 62.6 °F - 55.4 °F 77% 30.13 in 10.0 mi SSE 10.4 mph 15.0 mph N/A   Overcast
10:55 AM 64.4 °F - 59.0 °F 83% 30.13 in 10.0 mi South 12.7 mph 18.4 mph N/A   Overcast
11:15 AM 64.4 °F - 57.2 °F 77% 30.12 in 10.0 mi South 15.0 mph 20.7 mph N/A   Mostly Cloudy
11:35 AM 64.4 °F - 55.4 °F 73% 30.11 in 10.0 mi SSE 18.4 mph 21.9 mph N/A   Scattered Clouds
11:55 AM 66.2 °F - 55.4 °F 68% 30.10 in 10.0 mi SSE 12.7 mph 19.6 mph N/A   Scattered Clouds
12:15 PM 68.0 °F - 55.4 °F 64% 30.08 in 10.0 mi SSE 16.1 mph 21.9 mph N/A   Clear
12:35 PM 69.8 °F - 57.2 °F 64% 30.07 in 10.0 mi SSE 15.0 mph 20.7 mph N/A   Clear
12:55 PM 69.8 °F - 57.2 °F 64% 30.06 in 10.0 mi South 16.1 mph - N/A   Clear
1:15 PM 69.8 °F - 55.4 °F 60% 30.05 in 10.0 mi SSE 15.0 mph 23.0 mph N/A   Clear
1:35 PM 69.8 °F - 55.4 °F 60% 30.04 in 10.0 mi SSE 16.1 mph 21.9 mph N/A   Clear
1:55 PM 69.8 °F - 57.2 °F 64% 30.03 in 10.0 mi SSE 13.8 mph - N/A   Clear
2:15 PM 69.8 °F - 59.0 °F 68% 30.02 in 10.0 mi SE 12.7 mph 17.3 mph N/A   Clear
2:35 PM 69.8 °F - 59.0 °F 68% 30.02 in 10.0 mi SE 11.5 mph 17.3 mph N/A   Clear
2:55 PM 69.8 °F - 57.2 °F 64% 30.02 in 10.0 mi SE 15.0 mph - N/A   Clear
3:15 PM 69.8 °F - 57.2 °F 64% 30.02 in 10.0 mi SE 12.7 mph - N/A   Clear
3:35 PM 69.8 °F - 57.2 °F 64% 30.02 in 10.0 mi SE 15.0 mph 18.4 mph N/A   Clear
3:55 PM 69.8 °F - 57.2 °F 64% 30.02 in 10.0 mi SE 13.8 mph - N/A   Clear
4:15 PM 69.8 °F - 59.0 °F 68% 30.02 in 10.0 mi SE 15.0 mph 18.4 mph N/A   Clear
4:35 PM 69.8 °F - 59.0 °F 68% 30.02 in 10.0 mi SE 12.7 mph - N/A   Clear
4:55 PM 68.0 °F - 57.2 °F 68% 30.02 in 10.0 mi SE 10.4 mph - N/A   Clear
5:15 PM 64.4 °F - 55.4 °F 73% 30.02 in 10.0 mi SE 10.4 mph 16.1 mph N/A   Clear
5:35 PM 64.4 °F - 57.2 °F 77% 30.02 in 10.0 mi ESE 10.4 mph - N/A   Clear
5:55 PM 64.4 °F - 59.0 °F 83% 30.03 in 10.0 mi SE 11.5 mph - N/A   Clear
6:15 PM 64.4 °F - 59.0 °F 83% 30.02 in 10.0 mi SE 10.4 mph - N/A   Clear
6:35 PM 62.6 °F - 57.2 °F 82% 30.02 in 10.0 mi SE 11.5 mph - N/A   Clear
6:55 PM 62.6 °F - 57.2 °F 82% 30.03 in 10.0 mi SE 10.4 mph - N/A   Clear
7:15 PM 62.6 °F - 57.2 °F 82% 30.03 in 10.0 mi SE 10.4 mph - N/A   Clear
7:35 PM 60.8 °F - 55.4 °F 82% 30.03 in 10.0 mi SE 10.4 mph - N/A   Clear
7:55 PM 60.8 °F - 55.4 °F 82% 30.04 in 10.0 mi SE 9.2 mph - N/A   Clear
8:15 PM 59.0 °F - 55.4 °F 88% 30.04 in 10.0 mi SE 9.2 mph - N/A   Clear
8:35 PM 59.0 °F - 55.4 °F 88% 30.03 in 10.0 mi SE 10.4 mph - N/A   Clear
8:55 PM 59.0 °F - 55.4 °F 88% 30.03 in 7.0 mi SE 9.2 mph - N/A   Clear
9:15 PM 59.0 °F - 55.4 °F 88% 30.04 in 7.0 mi SE 8.1 mph - N/A   Clear
9:35 PM 57.2 °F - 55.4 °F 94% 30.04 in 7.0 mi SE 6.9 mph - N/A   Clear
9:55 PM 57.2 °F - 55.4 °F 94% 30.05 in 7.0 mi SE 6.9 mph - N/A   Clear
10:15 PM 55.4 °F - 53.6 °F 94% 30.05 in 7.0 mi SSE 6.9 mph - N/A   Clear
10:35 PM 55.4 °F - 53.6 °F 94% 30.05 in 7.0 mi SE 5.8 mph - N/A   Clear
10:55 PM 55.4 °F - 53.6 °F 94% 30.05 in 7.0 mi SE 6.9 mph - N/A   Clear
11:15 PM 57.2 °F - 55.4 °F 94% 30.05 in 7.0 mi SSE 8.1 mph - N/A   Clear
11:35 PM 57.2 °F - 55.4 °F 94% 30.05 in 7.0 mi SSE 8.1 mph - N/A   Clear
11:55 PM 57.2 °F - 55.4 °F 94% 30.05 in 7.0 mi SSE 6.9 mph - N/A   Clear